GW1255 Weather Reports


time (UTC)temp
F
wind
direction
speed
knots
gust
knots
rain 1hr
in
rain 24hr
in
rain mn
in
humidity
%
barometer
mb
20260502160903 54 275 0.9 2.6 0.09 0.10 0.10 86 1013.6
20260502152018 59 279 1.7 2.6 0.00 0.02 0.01 71 1013.5
20260502150903 60 277 0.9 1.7 0.00 0.02 0.01 68 1013.6
20260502123603 60 257 1.7 4.3 0.00 0.06 0.01 65 1015.7
20260502122703 60 224 2.6 4.3 0.00 0.06 0.01 65 1015.8
20260502122017 60 196 3.5 5.2 0.00 0.06 0.01 65 1015.9
20260502120903 60 286 3.5 5.2 0.00 0.06 0.01 65 1016.1
20260502115617 60 126 3.5 5.2 0.00 0.06 0.01 66 1016.2
20260502114717 60 113 2.6 5.2 0.00 0.06 0.01 68 1016.3
20260502113603 59 144 2.6 3.5 0.00 0.06 0.01 70 1016.4
20260502112703 58 129 4.3 7.0 0.00 0.06 0.01 71 1016.6
20260502111803 58 188 3.5 5.2 0.00 0.06 0.01 73 1016.8
20260502110903 58 157 4.3 7.0 0.00 0.06 0.01 74 1016.9
20260502110003 58 137 4.3 6.1 0.00 0.06 0.01 73 1017.0
20260502105403 58 135 4.3 7.8 0.00 0.06 0.01 74 1017.2
20260502104718 58 164 4.3 7.8 0.00 0.06 0.01 73 1017.2
20260502103603 58 131 2.6 4.3 0.00 0.06 0.01 71 1017.1
20260502102703 58 133 3.5 6.1 0.00 0.06 0.01 71 1017.1
20260502101803 58 143 5.2 7.8 0.00 0.06 0.01 72 1017.3
20260502100903 58 172 3.5 7.8 0.00 0.06 0.01 72 1017.4
20260502091117 56 140 1.7 3.5 0.00 0.06 0.01 79 1017.7
20260502070903 49 106 0.0 0.0 0.00 0.06 0.01 90 1018.3
20260502070003 49 110 0.0 0.0 0.00 0.06 0.01 91 1018.2
20260502065617 49 0 0.0 0.0 0.00 0.06 0.01 91 1018.2
20260502064504 48 108 0.0 0.9 0.00 0.06 0.01 92 1018.3
20260502063603 48 106 0.0 0.9 0.00 0.06 0.01 93 1018.3
20260502062703 47 0 0.0 0.0 0.00 0.06 0.01 92 1018.4
20260502061803 46 112 0.0 0.0 0.00 0.06 0.01 92 1018.5
20260502060903 46 120 0.9 0.9 0.00 0.06 0.01 92 1018.5
20260502060003 46 127 0.0 0.9 0.00 0.06 0.01 92 1018.5
20260502055403 46 0 0.0 0.0 0.00 0.06 0.01 92 1018.4
20260502054718 46 0 0.0 0.0 0.00 0.06 0.01 92 1018.4
20260502053818 45 129 0.0 0.0 0.00 0.06 0.01 92 1018.3
20260502052703 44 114 0.9 1.7 0.00 0.06 0.01 92 1018.4
20260502052016 44 24 0.0 0.0 0.00 0.06 0.01 92 1018.4
20260502051118 44 26 0.0 0.9 0.00 0.06 0.01 92 1018.2
20260502050003 44 0 0.0 0.0 0.00 0.06 0.01 92 1018.2
20260502045403 45 95 0.0 0.0 0.00 0.06 0.01 92 1018.2
20260502044503 45 96 0.0 0.9 0.00 0.06 0.01 92 1018.3
20260502043603 45 74 0.9 0.9 0.00 0.06 0.01 92 1018.2
20260502042917 45 317 0.9 0.9 0.00 0.06 0.01 92 1018.3
20260502041803 45 308 0.9 2.6 0.00 0.06 0.01 91 1018.3
20260502040903 45 287 1.7 2.6 0.00 0.06 0.01 91 1018.4
20260502040003 45 286 0.9 1.7 0.00 0.06 0.01 91 1018.6
20260502035403 45 281 1.7 2.6 0.01 0.06 0.01 91 1018.7
20260502034718 45 282 0.9 1.7 0.01 0.06 0.01 91 1018.8
20260502033603 45 276 1.7 3.5 0.01 0.06 0.01 90 1018.8
20260502032703 45 275 0.9 2.6 0.01 0.06 0.01 90 1018.8
20260502031803 46 255 1.7 2.6 0.01 0.06 0.01 90 1018.8
20260502031117 46 277 0.9 2.6 0.01 0.06 0.01 90 1018.9
20260502030003 46 281 0.0 0.9 0.01 0.06 0.01 90 1018.8
20260502025403 47 269 0.9 2.6 0.00 0.06 0.00 90 1018.8
20260502024717 47 276 1.7 3.5 0.00 0.06 0.00 90 1018.7
20260502023603 46 282 1.7 3.5 0.00 0.06 0.00 90 1018.9
20260502022703 46 290 0.9 1.7 0.00 0.06 0.00 90 1018.8
20260502021803 46 290 0.9 1.7 0.00 0.06 0.00 89 1018.8
20260502021117 47 285 1.7 3.5 0.00 0.06 0.00 89 1018.9
20260502020003 47 270 2.6 4.3 0.00 0.06 0.00 90 1019.0
20260502015403 47 266 1.7 4.3 0.00 0.06 0.00 90 1019.0
20260502014503 47 285 1.7 2.6 0.00 0.06 0.00 90 1019.2
20260502013603 47 282 2.6 3.5 0.00 0.06 0.00 89 1019.2
20260502012703 47 280 1.7 3.5 0.00 0.06 0.00 90 1019.2
20260502012017 47 275 1.7 3.5 0.00 0.06 0.00 90 1019.4
20260502011116 47 287 1.7 2.6 0.00 0.06 0.00 90 1019.4
20260502010003 47 291 0.9 2.6 0.00 0.06 0.00 89 1019.5
20260502005403 47 293 1.7 2.6 0.00 0.06 0.00 89 1019.5
20260502004718 47 284 1.7 2.6 0.00 0.06 0.00 88 1019.5
20260502003603 48 274 1.7 2.6 0.00 0.06 0.00 88 1019.7
20260502002703 48 280 0.9 1.7 0.00 0.06 0.00 88 1019.8
20260502001803 48 278 0.9 1.7 0.00 0.06 0.00 89 1019.7
20260502000903 48 284 0.9 1.7 0.00 0.06 0.00 89 1019.9
20260502000003 48 285 0.9 0.9 0.00 0.06 0.00 89 1019.8
20260501235403 48 288 0.9 0.9 0.00 0.06 0.00 88 1019.9
20260501234718 49 287 0.9 1.7 0.00 0.06 0.00 88 1020.0
20260501233603 50 285 0.9 2.6 0.00 0.06 0.00 87 1020.1
20260501232703 50 279 1.7 3.5 0.00 0.06 0.00 87 1020.2
20260501231803 50 276 1.7 1.7 0.00 0.06 0.00 87 1020.3
20260501230903 50 279 1.7 1.7 0.00 0.06 0.00 87 1020.2
20260501230003 50 266 1.7 2.6 0.00 0.06 0.00 88 1020.3
20260501225403 50 276 1.7 2.6 0.00 0.06 0.06 88 1020.3
20260501224718 49 283 1.7 2.6 0.00 0.06 0.06 89 1020.3
20260501223603 49 277 0.9 2.6 0.00 0.06 0.06 88 1020.2
20260501222703 50 271 0.9 1.7 0.00 0.06 0.06 88 1020.1
20260501221803 50 271 0.9 1.7 0.00 0.06 0.06 88 1020.1
20260501220903 50 284 0.9 1.7 0.00 0.06 0.06 88 1020.1
20260501220003 50 278 1.7 1.7 0.00 0.06 0.06 88 1020.1
20260501215403 50 280 0.9 1.7 0.00 0.06 0.06 88 1020.1
20260501214503 51 281 0.9 1.7 0.00 0.06 0.06 88 1020.1
20260501213603 51 286 0.9 1.7 0.00 0.06 0.06 87 1020.1
20260501212703 51 273 1.7 3.5 0.00 0.06 0.06 87 1020.1
20260501211803 51 275 1.7 3.5 0.00 0.06 0.06 88 1020.0
20260501210903 51 277 0.9 2.6 0.00 0.06 0.06 88 1020.1
20260501210003 51 246 0.9 0.9 0.00 0.06 0.06 88 1020.1
20260501205403 51 236 0.0 0.9 0.00 0.06 0.06 88 1020.0
20260501204503 52 238 0.9 1.7 0.00 0.06 0.06 87 1020.0
20260501203603 52 238 0.9 1.7 0.00 0.06 0.06 88 1020.0
20260501202703 52 250 0.9 1.7 0.00 0.06 0.06 88 1020.0
20260501201803 53 261 0.9 2.6 0.00 0.06 0.06 88 1019.9
20260501200903 53 266 0.9 1.7 0.00 0.06 0.06 88 1019.9
20260501200003 53 253 0.9 0.9 0.00 0.06 0.06 87 1019.9
20260501195617 53 253 0.9 0.9 0.00 0.06 0.06 87 1020.0
20260501194503 54 256 0.9 0.9 0.00 0.06 0.06 86 1019.9
20260501193603 55 259 0.0 0.9 0.00 0.06 0.06 85 1019.8
20260501192703 55 261 0.0 0.0 0.00 0.06 0.06 84 1019.9
20260501191803 56 254 0.9 1.7 0.00 0.06 0.06 84 1019.9
20260501190903 56 267 0.9 2.6 0.00 0.06 0.06 84 1019.9
20260501190003 57 256 1.7 2.6 0.00 0.06 0.06 83 1019.9
20260501185403 57 271 1.7 3.5 0.00 0.06 0.06 83 1019.8
20260501184504 57 263 2.6 5.2 0.00 0.06 0.06 84 1019.7
20260501183603 58 247 0.9 0.9 0.00 0.06 0.06 83 1019.8
20260501182703 58 231 0.9 2.6 0.00 0.06 0.06 84 1019.7
20260501181803 58 243 1.7 3.5 0.00 0.06 0.06 83 1019.7
20260501180903 58 244 1.7 4.3 0.00 0.06 0.06 84 1019.7
20260501180217 58 258 2.6 4.3 0.00 0.06 0.06 83 1019.7
20260501175617 58 249 2.6 3.5 0.00 0.06 0.06 83 1019.6
20260501174503 58 237 2.6 7.0 0.00 0.06 0.06 84 1019.5
20260501173817 58 248 4.3 7.0 0.00 0.06 0.06 85 1019.6
20260501172916 58 250 3.5 5.2 0.00 0.06 0.06 86 1019.7
20260501171803 57 231 3.5 5.2 0.00 0.06 0.06 88 1019.8
20260501170903 57 231 3.5 6.1 0.00 0.06 0.06 88 1019.8
20260501170004 57 217 2.6 5.2 0.00 0.06 0.06 88 1019.8
20260501165403 57 186 1.7 2.6 0.00 0.06 0.06 88 1019.8
20260501164503 57 198 1.7 3.5 0.00 0.06 0.06 89 1019.8
20260501163603 57 221 2.6 4.3 0.01 0.06 0.06 89 1019.9
20260501162918 57 214 2.6 4.3 0.01 0.06 0.06 89 1019.9
20260501161803 57 204 2.6 5.2 0.01 0.06 0.06 89 1020.0